Hourly Weather Roundup
Issued by NWS Central Illinois

Home | Current Version | Previous Version | Graphics & Text | Print | Product List | Glossary On
Versions: 1 2 3 4 5 6 7 8 9 10 11 12 13 14 15 16 17 18 19 20 21 22 23 24 25 26 27 28 29 30 31 32 33 34 35 36 37 38 39 40 41 42 43 44 45 46 47 48 49 50
000
NZUS43 KILX 232010
HWRILX

AREA WEATHER ROUNDUP
NATIONAL WEATHER SERVICE, LINCOLN IL
300 PM CDT MON MAY 23 2016


CITY           SKY/WX    TMP DP  RH WIND       PRES   REMARKS
BLOOMINGTON    SUNNY     85  49  28 S10       29.97F HX  83
CHAMPAIGN      SUNNY     82  42  24 VRB3      29.98F HX  80
DANVILLE       SUNNY     81  36  20 SE6       29.97S
DECATUR        SUNNY     83  49  30 S7G20     29.96F HX  81
EFFINGHAM      SUNNY     81  53  38 E6        30.00F HX  81
FLORA          SUNNY     83  51  33 S3        29.98F HX  81
GALESBURG      SUNNY     83  50  31 S10G17    29.93S HX  81
JACKSONVILLE   SUNNY     84  44  25 S12       29.94S HX  81
LACON          MOSUNNY   83  48  29 W7        29.92F HX  81
LAWRENCEVILLE  SUNNY     80  46  30 CALM      30.00S
LITCHFIELD     SUNNY     82  47  30 S9        29.96F HX  80
$$


CITY           SKY/WX    TMP DP  RH WIND       PRES   REMARKS
LINCOLN        SUNNY     85  48  27 SE5G18    29.94F HX  83
MACOMB         MOSUNNY   85  43  22 S17G25    29.95S HX  82
MATTOON        SUNNY     79  46  31 SW6       29.98F
MT CARMEL AP   SUNNY     80  40  24 CALM      30.00S
OLNEY-NOBLE AP SUNNY     81  48  32 CALM      29.99F HX  80
PARIS          SUNNY     80  42  26 S5        30.00F
PEORIA         PTSUNNY   84  46  26 S13       29.93F HX  82
PONTIAC        SUNNY     85  47  26 SE12      29.96F HX  82
RANTOUL        SUNNY     84  39  20 SE8       29.98S HX  81
ROBINSON       SUNNY     78  50  36 S9        30.01F
SPRINGFIELD    SUNNY     86  47  25 S8G20     29.94F HX  83
TAYLORVILLE    SUNNY     83  49  30 SE12      29.95F HX  82
$$

...REGIONAL REPORTS...


CITY           SKY/WX    TMP DP  RH WIND       PRES   REMARKS
CHICAGO O`HARE MOSUNNY   81  44  27 S6        29.96F HX  80
KANKAKEE       SUNNY    N/A N/A N/A SE8       29.97F
MOLINE         CLOUDY    85  47  26 S18       29.90F HX  82
MOUNT STERLING SUNNY     83  48  29 S12G18    29.94R HX  81
MOUNT VERNON   SUNNY     84  54  34 CALM      29.98F HX  83
PITTSFIELD     SUNNY     82  51  34 S15G21    29.96R HX  81
QUINCY         SUNNY     82  49  31 S15G22    29.94S HX  81
ROCKFORD       PTSUNNY   84  46  26 SE13G22   29.95F HX  82
$$


CITY           SKY/WX    TMP DP  RH WIND       PRES   REMARKS
BURLINGTON     MOSUNNY   84  48  28 S16       29.91F HX  82
CEDAR RAPIDS   SUNNY     85  50  29 S22G29    29.87F HX  83
DES MOINES     CLOUDY    76  58  53 S17       29.87R
KIRKSVILLE     CLOUDY    78  54  43 S10G21    29.93F
OTTUMWA        CLOUDY    81  54  39 S20G26    29.89S HX  81
ST LOUIS       PTSUNNY   84  49  29 S12       29.96F HX  82
$$


CITY           SKY/WX    TMP DP  RH WIND       PRES   REMARKS
TERRE HAUTE    SUNNY     79  43  27 VRB7      30.00S
EVANSVILLE       N/A    N/A N/A N/A MISG      30.00F
INDIANAPOLIS   SUNNY     77  42  28 E7        29.99F
LAFAYETTE      SUNNY     78  37  22 CALM      29.98F
MADISON        PTSUNNY   82  45  27 S18G24    29.91F HX  80
MILWAUKEE      MOSUNNY   74  46  36 SE17      29.95F
$$






USA.gov is the U.S. government's official web portal to all federal, state and local government web resources and services.